Fredericksburg, VA

1:33 PM EST on December 08, 2019 (GMT -0500)
Shannon

Weather History for KEZF - October, 2019

Change the Weather History Date:

Wednesday, October 2, 2019

  Actual Average (KNYG) Record (KNYG)
Temperature  
Mean Temperature 83 °F -  
Max Temperature 96 °F 69 °F 97 °F (2019)
Min Temperature 70 °F 51 °F 41 °F (1997)
Cooling Degree Days 18    
Growing Degree Days 33 (Base 50)    
Moisture  
Dew Point 70 °F    
Average Humidity 73    
Maximum Humidity 99    
Minimum Humidity 38    
Precipitation  
Precipitation 0.00 in - - ()
Sea Level Pressure  
Sea Level Pressure 29.91 in    
Wind  
Wind Speed 3 mph ()    
Max Wind Speed 13 mph    
Max Gust Speed 17 mph    
Visibility 10.0 miles    
Events      
Averages and records for this station are not official NWS values.
T = Trace of Precipitation, MM = Missing Value Source: Averaged Metar Reports

Daily Weather History Graph

Daily Weather History Graph

Search for Another Location

Airport or City:

Astronomy

Oct. 02, 2019 Rise Set
Actual Time 7:06 AM EDT 6:51 PM EDT
Civil Twilight 6:39 AM EDT 7:17 PM EDT
Nautical Twilight 6:09 AM EDT 7:48 PM EDT
Astronomical Twilight 5:38 AM EDT 8:19 PM EDT
Moon 11:26 AM EDT (10/2) 9:47 PM EDT (10/2)
Length of Visible Light 12h 37m
Length of Day
11h 45m
Waxing Crescent, 20% of the Moon is Illuminated
Oct 2
Waxing Crescent
Oct 5
First Quarter
Oct 13
Full
Oct 21
Last Quarter
Oct 27
New

Hourly Weather History & Observations

Time (EDT) Temp. Heat Index Dew Point Humidity Pressure Visibility Wind Dir Wind Speed Gust Speed Precip Events Conditions
12:15 AM 74.8 °F - 70.2 °F 85% 29.97 in 10.0 mi South 4.6 mph - N/A   Clear
12:35 AM 74.7 °F - 70.2 °F 86% 29.96 in 10.0 mi South 4.6 mph - N/A   Clear
12:55 AM 75.2 °F - 70.3 °F 85% 29.96 in 10.0 mi South 3.5 mph - N/A   Clear
1:15 AM 74.8 °F - 70.2 °F 85% 29.95 in 10.0 mi South 5.8 mph - N/A   Clear
1:35 AM 74.8 °F - 70.2 °F 85% 29.95 in 10.0 mi SSW 3.5 mph - N/A   Clear
1:55 AM 74.3 °F - 70.2 °F 87% 29.95 in 10.0 mi South 3.5 mph - N/A   Clear
2:15 AM 73.9 °F - 70.0 °F 87% 29.95 in 10.0 mi Calm Calm - N/A   Clear
2:35 AM 73.8 °F - 70.0 °F 88% 29.94 in 10.0 mi Calm Calm - N/A   Clear
2:55 AM 73.4 °F - 70.0 °F 89% 29.93 in 10.0 mi Calm Calm - N/A   Clear
3:15 AM 73.4 °F - 70.0 °F 89% 29.93 in 10.0 mi Calm Calm - N/A   Clear
3:35 AM 72.9 °F - 70.0 °F 91% 29.93 in 10.0 mi Calm Calm - N/A   Clear
3:55 AM 72.1 °F - 69.8 °F 92% 29.93 in 10.0 mi Calm Calm - N/A   Clear
4:35 AM 71.6 °F - 70.0 °F 95% 29.93 in 10.0 mi Calm Calm - N/A   Clear
4:55 AM 71.6 °F - 69.8 °F 94% 29.93 in 10.0 mi Calm Calm - N/A   Clear
5:15 AM 70.9 °F - 69.8 °F 96% 29.93 in 10.0 mi Calm Calm - N/A   Scattered Clouds
5:35 AM 70.3 °F - 69.8 °F 98% 29.93 in 10.0 mi Calm Calm - N/A   Scattered Clouds
5:55 AM 71.2 °F - 70.0 °F 96% 29.94 in 10.0 mi Calm Calm - N/A   Mostly Cloudy
6:15 AM 70.2 °F - 69.8 °F 99% 29.94 in 10.0 mi South 3.5 mph - N/A   Mostly Cloudy
6:35 AM 70.9 °F - 70.2 °F 98% 29.94 in 10.0 mi Calm Calm - N/A   Mostly Cloudy
6:55 AM 70.9 °F - 70.2 °F 98% 29.95 in 10.0 mi Calm Calm - N/A   Scattered Clouds
7:35 AM 70.0 °F - 69.3 °F 98% 29.95 in 10.0 mi Calm Calm - N/A   Clear
7:55 AM 72.0 °F - 70.9 °F 96% 29.95 in 10.0 mi Calm Calm - N/A   Clear
8:35 AM 74.7 °F - 71.8 °F 91% 29.95 in 10.0 mi SSW 3.5 mph - N/A   Clear
8:55 AM 75.4 °F - 72.1 °F 90% 29.96 in 10.0 mi SW 4.6 mph - N/A   Clear
9:15 AM 77.2 °F - 72.7 °F 86% 29.95 in 10.0 mi WSW 3.5 mph - N/A   Clear
9:35 AM 79.3 °F - 72.9 °F 80% 29.95 in 10.0 mi Calm Calm - N/A   Clear
9:55 AM 81.5 °F 86.7 °F 73.2 °F 76% 29.95 in 10.0 mi SW 4.6 mph - N/A   Clear
10:15 AM 83.8 °F 90.4 °F 73.6 °F 71% 29.94 in 10.0 mi SW 3.5 mph - N/A   Clear
10:35 AM 86.0 °F 93.8 °F 73.8 °F 67% 29.94 in 10.0 mi SW 3.5 mph - N/A   Clear
10:55 AM 87.3 °F 95.3 °F 73.9 °F 64% 29.93 in 10.0 mi SSW 4.6 mph - N/A   Clear
11:15 AM 89.4 °F 99.4 °F 74.7 °F 62% 29.92 in 10.0 mi SSW 5.8 mph - N/A   Clear
11:35 AM 91.2 °F 99.1 °F 72.7 °F 54% 29.92 in 10.0 mi SW 6.9 mph - N/A   Clear
11:55 AM 92.8 °F 100.3 °F 71.8 °F 50% 29.92 in 10.0 mi West 11.5 mph - N/A   Clear
12:15 PM 93.0 °F 100.1 °F 71.2 °F 49% 29.92 in 10.0 mi WSW 5.8 mph - N/A   Scattered Clouds
12:35 PM 94.3 °F 101.0 °F 70.7 °F 46% 29.91 in 10.0 mi West 6.9 mph - N/A   Scattered Clouds
12:55 PM 93.7 °F 99.9 °F 70.3 °F 46% 29.90 in 10.0 mi West 8.1 mph - N/A   Scattered Clouds
1:15 PM 93.6 °F 99.5 °F 69.6 °F 46% 29.89 in 10.0 mi WSW 6.9 mph - N/A   Mostly Cloudy
1:35 PM 95.0 °F 99.5 °F 68.0 °F 41% 29.89 in 10.0 mi West 8.1 mph - N/A   Mostly Cloudy
1:55 PM 93.9 °F 98.6 °F 68.0 °F 43% 29.88 in 10.0 mi NW 8.1 mph - N/A   Mostly Cloudy
2:15 PM 94.3 °F 98.7 °F 67.8 °F 42% 29.88 in 10.0 mi NW 3.5 mph 9.2 mph N/A   Scattered Clouds
2:35 PM 95.0 °F 99.0 °F 67.5 °F 40% 29.87 in 10.0 mi West 9.2 mph - N/A   Scattered Clouds
3:15 PM 96.1 °F 100.5 °F 67.3 °F 39% 29.86 in 10.0 mi SW 10.4 mph - N/A   Scattered Clouds
3:35 PM 95.9 °F 100.1 °F 67.1 °F 39% 29.86 in 10.0 mi WSW 9.2 mph 17.3 mph N/A   Scattered Clouds
3:55 PM 95.4 °F 99.1 °F 66.9 °F 39% 29.85 in 10.0 mi West 3.5 mph - N/A   Scattered Clouds
4:15 PM 95.4 °F 98.6 °F 66.2 °F 38% 29.85 in 10.0 mi WSW 12.7 mph 17.3 mph N/A   Clear
4:35 PM 94.6 °F 98.3 °F 66.6 °F 40% 29.84 in 10.0 mi WSW 6.9 mph - N/A   Clear
4:55 PM 94.6 °F 98.3 °F 67.1 °F 40% 29.84 in 10.0 mi WSW 6.9 mph - N/A   Clear
5:35 PM 93.2 °F 96.7 °F 66.9 °F 42% 29.84 in 10.0 mi West 4.6 mph - N/A   Clear
5:55 PM 92.8 °F 97.1 °F 68.2 °F 44% 29.84 in 10.0 mi SW 4.6 mph - N/A   Clear
6:15 PM 91.2 °F 96.0 °F 69.1 °F 48% 29.84 in 10.0 mi SW 4.6 mph - N/A   Clear
6:35 PM 87.8 °F 94.3 °F 72.0 °F 59% 29.84 in 10.0 mi SW 3.5 mph - N/A   Clear
6:55 PM 84.7 °F 90.7 °F 72.1 °F 66% 29.84 in 10.0 mi Calm Calm - N/A   Clear
7:15 PM 82.4 °F 86.7 °F 71.1 °F 68% 29.85 in 10.0 mi Calm Calm - N/A   Clear
7:35 PM 82.2 °F 86.6 °F 71.2 °F 69% 29.86 in 10.0 mi Calm Calm - N/A   Clear
7:55 PM 79.5 °F - 71.4 °F 76% 29.86 in 10.0 mi Calm Calm - N/A   Clear
8:15 PM 79.3 °F - 70.7 °F 75% 29.87 in 10.0 mi Calm Calm - N/A   Clear
8:35 PM 78.4 °F - 71.6 °F 79% 29.87 in 10.0 mi Calm Calm - N/A   Clear
8:55 PM 77.2 °F - 71.1 °F 81% 29.87 in 10.0 mi Calm Calm - N/A   Clear
9:15 PM 77.2 °F - 70.9 °F 81% 29.88 in 10.0 mi Calm Calm - N/A   Clear
9:35 PM 77.0 °F - 70.7 °F 81% 29.88 in 10.0 mi Calm Calm - N/A   Clear
9:55 PM 76.1 °F - 70.7 °F 83% 29.89 in 10.0 mi Calm Calm - N/A   Clear
10:15 PM 75.6 °F - 70.7 °F 85% 29.89 in 10.0 mi Calm Calm - N/A   Clear
10:35 PM 75.2 °F - 70.9 °F 86% 29.89 in 10.0 mi Calm Calm - N/A   Clear
10:55 PM 74.7 °F - 70.9 °F 88% 29.90 in 10.0 mi Calm Calm - N/A   Clear
11:15 PM 74.5 °F - 70.7 °F 88% 29.90 in 10.0 mi Calm Calm - N/A   Clear
11:35 PM 73.4 °F - 70.7 °F 91% 29.90 in 10.0 mi Calm Calm - N/A   Clear
11:55 PM 73.4 °F - 70.9 °F 92% 29.90 in 10.0 mi Calm Calm - N/A   Clear